Location: Bühlhof
(48.7849°N, 8.6361°E)
Time: 00:07:06
(UTC+00:00)

Meteor 1-21 - Pass Details

Date: 19 January 2026
Orbit: 845 x 885 km, 81.2° (Epoch: 9 February)

Event Time Altitude Azimuth Distance (km) Brightness Sun altitude
Rises 16:57:26 0° 188° (S) 3,397 7.8 -9.0°
Reaches altitude 10° 16:59:50 10° 188° (S) 2,464 7.0 -9.3°
Maximum altitude 17:05:26 87° 101° (E) 853 4.2 -10.2°
Drops below altitude 10° 17:11:03 10° 12° (NNE) 2,480 6.3 -11.1°
Sets 17:13:29 0° 13° (NNE) 3,421 7.1 -11.5°
